Station NWWH1 - 1611400 - Nawiliwili, HI Image indicating link to RSS feed of recent meteorological observations for station NWWH1


Conditions at NWWH1 as of
(3:18 pm HAST on 04/20/2024)
0118 GMT on 04/21/2024:
     

Click on the graph icon in the table below to see a time series plot of the last five days of that observation.

5-day plot - Wind Direction Wind Direction (WDIR):ENE ( 60 deg true )
5-day plot - Wind Speed Wind Speed (WSPD): 12.0 kts
5-day plot - Wind Gust Wind Gust (GST): 15.0 kts
5-day plot - Atmospheric Pressure Atmospheric Pressure (PRES):30.08 in
5-day plot - Air Temperature Air Temperature (ATMP): 75.4 °F
5-day plot - Water Temperature Water Temperature (WTMP): 75.4 °F
5-day plot - Wind Speed at 10 Meters Wind Speed at 10 meters (WSPD10M): 11.7 kts
5-day plot - Wind Speed at 20 Meters Wind Speed at 20 meters (WSPD20M): 13.6 kts
5-day plot -  Wind Speed, Wind Gust and Atmospheric Pressure Combined plot of Wind Speed, Gust, and Air Pressure
NOS Water Level Observation Network Water Level
Previous observations
TIME
(HAST)
5-day plot - Wind Direction
WDIR
 
5-day plot - Wind Speed
WSPD
kts
5-day plot - Wind Gust
GST
kts
5-day plot - Wave Height
WVHT
ft
5-day plot - Dominant Wave Period
DPD
sec
5-day plot - Average Wave Period
APD
sec
5-day plot - Mean Wave Direction
MWD
 
5-day plot - Atmospheric Pressure
PRES
in
5-day plot - Pressure Tendency
PTDY
in
5-day plot - Air Temperature
ATMP
°F
5-day plot - Water Temperature
WTMP
°F
5-day plot - Dew Point
DEWP
°F
5-day plot - Salinity
SAL
psu
5-day plot - Visibility
VIS
nmi
5-day plot - Tide (above MLLW)
TIDE
ft
2024-04-20 03:12 pm NE 12.0 15.0----30.08- 75.4 75.4----
2024-04-20 03:06 pmENE 12.0 17.1----30.08- 74.8 75.4----
2024-04-20 03:00 pmENE 13.0 15.9----30.08-0.04 74.7 75.4----
2024-04-20 02:54 pmENE 11.1 15.9----30.09- 75.4 75.4----
2024-04-20 02:48 pmENE 12.0 14.0----30.09- 74.8 75.4----
2024-04-20 02:42 pmENE 12.0 15.0----30.09- 75.0 75.4----
2024-04-20 02:36 pmENE 13.0 15.9----30.09- 74.7 75.4----
2024-04-20 02:30 pmENE 11.1 15.0----30.09- 75.2 75.4----
2024-04-20 02:24 pmENE 12.0 15.9----30.09- 75.0 75.6----
2024-04-20 02:18 pmENE 11.1 15.9------ 74.7 75.6----
2024-04-20 02:12 pmENE 13.0 17.1------ 75.0 75.6----
2024-04-20 02:06 pmENE 12.0 17.1------ 74.8 75.6----
2024-04-20 02:00 pmENE 13.0 15.9----30.09-0.04 74.5 75.4----
2024-04-20 01:54 pmENE 12.0 14.0----30.10- 75.2 75.6----
2024-04-20 01:48 pm NE 11.1 15.9----30.10-- 75.4----
2024-04-20 01:42 pmENE 12.0 14.0----30.10-- 75.4----
2024-04-20 01:36 pm NE 12.0 15.9----30.10-- 75.6----
2024-04-20 01:30 pmENE 11.1 14.0----30.11- 74.7 75.6----
2024-04-20 01:24 pmENE 12.0 14.0----30.11- 74.7 75.6----
2024-04-20 01:18 pm E 11.1 17.1----30.11-- 75.6----
2024-04-20 01:12 pmENE 13.0 15.0----30.11-- 75.6----
2024-04-20 01:06 pmENE 13.0 15.0----30.11-- 75.6----
2024-04-20 01:00 pm E 12.0 14.0----30.11-0.03 74.3 75.6----
2024-04-20 12:54 pmENE 11.1 15.0----30.11- 75.4 75.6----
2024-04-20 12:48 pmENE 9.9 15.0----30.12- 75.6 75.6----
2024-04-20 12:42 pmENE 11.1 15.0----30.12- 75.4 75.6----
2024-04-20 12:36 pmENE 11.1 13.0----30.12- 74.8 75.6----
2024-04-20 12:30 pmENE 13.0 15.0----30.12- 74.7 75.6----
2024-04-20 12:24 pmENE 13.0 15.0----30.12- 74.1 75.6----
2024-04-20 12:18 pmENE 12.0 15.0----30.12- 74.8 75.6----
2024-04-20 12:12 pm NE 11.1 15.0----30.12- 75.0 75.6----
2024-04-20 12:06 pmENE 12.0 15.9----30.12- 74.1 75.6----
2024-04-20 12:00 pm-------30.12-0.02 74.5 75.6----
2024-04-20 11:54 am-------30.13- 74.5 75.6----
2024-04-20 11:48 amENE 13.0 15.9----30.13- 74.5 75.6----
2024-04-20 11:42 amENE 13.0 15.0----30.13- 74.3 75.4----
2024-04-20 11:36 amENE 12.0 15.0----30.13- 74.3 75.4----
2024-04-20 11:30 amENE 9.9 14.0----30.13- 74.5 75.4----
2024-04-20 11:24 amENE 8.9 12.0----30.13- 74.7 75.4----
2024-04-20 11:18 amENE 8.9 14.0----30.13- 74.8 75.4----
2024-04-20 11:12 amENE 8.9 13.0----30.13- 74.8 75.4----
2024-04-20 11:06 am NE 9.9 13.0----30.13- 75.2 75.4----
2024-04-20 11:00 amENE 11.1 13.0----30.13+0.00 74.3 75.4----
2024-04-20 10:54 amENE 8.9 12.0----30.13- 75.0 75.4----
2024-04-20 10:48 amENE 8.9 12.0----30.13-- 75.4----
2024-04-20 10:42 am NE 8.9 13.0----30.13-- 75.4----
2024-04-20 10:36 amENE 8.9 13.0----30.13-- 75.4----
2024-04-20 10:30 amENE 8.9 14.0----30.14- 74.8 75.4----
2024-04-20 10:24 am E 9.9 12.0----30.14- 74.1 75.4----
2024-04-20 10:18 amENE 8.9 11.1------ 74.3 75.4----
2024-04-20 10:12 amENE 9.9 12.0------ 73.4 75.4----
2024-04-20 10:06 amENE 9.9 12.0------ 74.1 75.4----
2024-04-20 10:00 am-------30.14+0.02 74.3 75.4----
2024-04-20 09:54 am-------30.14- 74.5 75.4----
2024-04-20 09:48 amENE 7.0 11.1----30.14- 74.8-----
2024-04-20 09:42 amENE 7.0 12.0----30.14- 74.8 75.4----
2024-04-20 09:36 amENE 7.0 12.0----30.14- 74.1 75.4----
2024-04-20 09:30 amENE 8.0 11.1----30.14- 74.3 75.4----
2024-04-20 09:24 am NE 8.0 11.1----30.15- 73.9 75.4----
2024-04-20 09:18 amENE 8.0 11.1----30.15- 74.1 75.4----
2024-04-20 09:12 amENE 8.0 11.1----30.15- 73.9 75.4----
2024-04-20 09:06 amNNE 7.0 9.9----30.15- 73.2 75.4----
2024-04-20 09:00 am NE 8.0 11.1----30.15+0.03------
2024-04-20 08:54 am NE 7.0 12.0----30.15-------
2024-04-20 08:48 am NE 8.0 11.1----30.14- 73.9 75.2----
2024-04-20 08:42 am NE 7.0 9.9----30.14- 73.9 75.2----
2024-04-20 08:36 am NE 8.9 12.0----30.14- 73.6 75.2----
2024-04-20 08:30 am NE 8.9 11.1------ 73.6 75.2----
2024-04-20 08:24 amENE 7.0 8.9------ 73.6 75.2----
2024-04-20 08:18 am E 4.1 7.0----30.14- 72.9 75.2----
2024-04-20 08:12 am W 2.9 5.1----30.14- 70.9 75.2----
2024-04-20 08:06 am W 4.1 7.0----30.14- 70.0 75.2----
2024-04-20 08:00 amWSW 5.1 8.0----30.14+0.03 68.7 75.2----
2024-04-20 07:54 am SW 7.0 8.9----30.14- 68.4 75.2----
2024-04-20 07:48 amWSW 6.0 7.0----30.13- 68.2 75.2----
2024-04-20 07:42 am SW 5.1 6.0----30.13- 67.8 75.2----
2024-04-20 07:36 amWSW 5.1 6.0----30.13- 67.6 75.2----
2024-04-20 07:30 amWSW 6.0 7.0----30.13- 66.7 75.2----
2024-04-20 07:24 am SW 4.1 5.1----30.13- 66.6 75.2----
2024-04-20 07:18 amWSW 4.1 5.1----30.13- 66.2 75.0----
2024-04-20 07:12 amWSW 4.1 5.1----30.13- 65.7 75.2----
2024-04-20 07:06 am SW 4.1 5.1----30.12- 65.1 75.2----
2024-04-20 07:00 am W 4.1 5.1----30.12+0.03 65.3 74.8----
2024-04-20 06:54 am W 4.1 6.0----30.12- 65.5 75.2----
2024-04-20 06:48 amWSW 2.9 6.0----30.12- 65.7 75.7----
2024-04-20 06:42 am W 4.1 6.0----30.12- 65.1 75.7----
2024-04-20 06:36 am W 4.1 5.1----30.12- 64.8 75.7----
2024-04-20 06:30 am W 2.9 4.1----30.12- 64.8 75.7----
2024-04-20 06:24 amWSW 4.1 5.1----30.12- 64.6 75.7----
2024-04-20 06:18 am W 4.1 5.1----30.12- 65.1 75.7----
2024-04-20 06:12 amWSW 5.1 7.0----30.12- 64.8 75.7----
2024-04-20 06:06 amWSW 4.1 5.1----30.12- 64.2 75.7----
2024-04-20 06:00 amWSW 5.1 6.0----30.12+0.01 63.9 75.7----
2024-04-20 05:54 amWSW 5.1 7.0----30.11- 64.8 75.7----
2024-04-20 05:48 am W 5.1 6.0----30.11- 65.1 75.7----
2024-04-20 05:42 amWSW 5.1 6.0----30.11- 64.6 75.7----
2024-04-20 05:36 amWSW 5.1 7.0----30.11- 64.4 75.7----
2024-04-20 05:30 amWSW 5.1 8.0----30.11- 64.6 75.7----
2024-04-20 05:24 amWSW 5.1 7.0----30.11- 64.4 75.7----
2024-04-20 05:18 amWSW 5.1 5.1----30.11- 64.4 75.7----
2024-04-20 05:12 amWSW 5.1 6.0----30.11- 64.8 75.7----
2024-04-20 05:06 amWSW 5.1 6.0----30.11- 65.1 75.7----
2024-04-20 05:00 am SW 4.1 6.0----30.10-0.01 65.3 75.7----
2024-04-20 04:54 amWSW 5.1 5.1----30.10- 65.5 75.7----
2024-04-20 04:48 amWSW 4.1 5.1----30.10- 65.3 75.7----
2024-04-20 04:42 amWSW 5.1 5.1----30.10- 65.5 75.7----
2024-04-20 04:36 amWSW 5.1 7.0----30.10- 65.5 75.7----
2024-04-20 04:30 amWSW 6.0 7.0----30.10- 66.0 75.7----
2024-04-20 04:24 am W 4.1 6.0----30.10- 67.1 75.7----
2024-04-20 04:18 am W 4.1 6.0----30.10- 66.9 75.7----
2024-04-20 04:12 amWSW 6.0 7.0----30.10- 67.1 75.7----
2024-04-20 04:06 amWSW 5.1 7.0----30.10- 67.3 75.7----
2024-04-20 04:00 am W 2.9 5.1----30.10-0.04 67.5 75.7----
2024-04-20 03:54 am W 2.9 4.1----30.10- 67.6 75.7----
2024-04-20 03:48 amWNW 4.1 5.1----30.10-- 75.7----
2024-04-20 03:42 amNNW 2.9 8.0----30.10-- 75.7----
2024-04-20 03:36 amNNE 6.0 8.9----30.10-- 75.7----
2024-04-20 03:30 am N 4.1 8.9----30.10- 70.9 75.7----
2024-04-20 03:24 am N 5.1 8.9----30.10- 71.1 75.7----
2024-04-20 03:18 amNNE 5.1 9.9----30.10- 71.1 75.7----
2024-04-20 03:12 amNNE 6.0 9.9----30.10- 71.2 75.7----
2024-04-20 03:06 amNNE 8.0 13.0----30.10- 71.4 75.7----
2024-04-20 03:00 amNNE 8.0 9.9----30.10-0.05 71.2 75.7----
2024-04-20 02:54 amNNE 8.9 12.0----30.10- 71.4 75.7----
2024-04-20 02:48 amNNE 8.0 12.0----30.11- 71.4 75.7----
2024-04-20 02:42 amNNE 8.0 12.0----30.11- 71.4 75.7----
2024-04-20 02:36 amNNE 9.9 12.0----30.11- 71.6 75.7----
2024-04-20 02:30 am NE 11.1 14.0----30.11- 71.6 75.7----
2024-04-20 02:24 am NE 9.9 15.0----30.11- 71.8 75.7----
2024-04-20 02:18 amNNE 9.9 14.0----30.11- 71.8 75.7----
2024-04-20 02:12 amNNE 12.0 15.0----30.11- 71.8 75.7----
2024-04-20 02:06 am NE 8.9 12.0----30.12- 72.0 75.7----
2024-04-20 02:00 am NE 11.1 14.0----30.12-0.04 72.0 75.7----
2024-04-20 01:54 am NE 9.9 15.0----30.12- 72.0 75.7----
2024-04-20 01:48 am NE 8.0 8.9----30.12- 71.8 75.7----
2024-04-20 01:42 am NE 8.9 14.0----30.12- 71.8 75.7----
2024-04-20 01:36 am NE 9.9 14.0----30.13- 72.0 75.7----
2024-04-20 01:30 am NE 8.9 12.0----30.13- 72.0 75.7----
2024-04-20 01:24 am NE 8.0 15.9----30.13- 71.8 75.7----
2024-04-20 01:18 am NE 11.1 14.0----30.13- 72.0 75.7----
2024-04-20 01:12 am NE 11.1 15.0----30.13- 72.0 75.7----
2024-04-20 01:06 am NE 9.9 14.0----30.13- 72.0 75.7----
2024-04-20 01:00 amENE 9.9 13.0----30.14-0.02 72.0 75.7----
2024-04-20 12:54 am NE 12.0 15.0----30.14- 72.1 75.7----
2024-04-20 12:48 am NE 11.1 17.1----30.14- 72.0 75.7----
2024-04-20 12:42 am NE 13.0 17.1----30.14- 72.0 75.7----
2024-04-20 12:36 am NE 12.0 18.1----30.14- 72.1 75.7----
2024-04-20 12:30 am NE 12.0 15.0----30.14-- 75.7----
2024-04-20 12:24 am NE 11.1 15.0----30.14-- 75.7----
2024-04-20 12:18 amENE 13.0 17.1----30.14- 72.3 75.7----
2024-04-20 12:12 amENE 13.0 15.9----30.15- 72.3 75.7----
2024-04-20 12:06 am NE 13.0 15.0----30.15- 72.3 75.7----
2024-04-20 12:00 amENE 12.0 17.1----30.15+0.00- 75.7----
2024-04-19 11:54 pmENE 13.0 15.9----30.15-- 75.7----
2024-04-19 11:48 pmENE 13.0 15.9----30.15- 72.7 75.7----
2024-04-19 11:42 pmENE 13.0 15.9----30.15- 72.5 75.7----
2024-04-19 11:36 pmENE 12.0 15.0----30.16- 72.5 75.7----
2024-04-19 11:30 pmENE 12.0 15.0----30.16- 72.7 75.7----
2024-04-19 11:24 pmENE 13.0 15.9----30.16- 72.7 75.7----
2024-04-19 11:18 pmENE 13.0 17.1----30.16- 72.7 75.7----
2024-04-19 11:12 pmENE 12.0 15.0----30.16- 72.9 75.7----
2024-04-19 11:06 pmENE 12.0 15.9----30.16- 72.9 75.7----
2024-04-19 11:00 pmENE 13.0 15.9----30.16+0.02 72.9 75.7----
2024-04-19 10:54 pmENE 13.0 15.9----30.16- 72.7 75.7----
2024-04-19 10:48 pmENE 13.0 15.9----30.16- 72.7 75.7----
2024-04-19 10:42 pmENE 11.1 14.0----30.16- 72.7 75.7----
2024-04-19 10:36 pm NE 11.1 15.0----30.16- 72.7 75.7----
2024-04-19 10:30 pmENE 12.0 14.0----30.16-- 75.7----
2024-04-19 10:24 pmENE 11.1 15.9----30.16-- 75.7----
2024-04-19 10:18 pmENE 12.0 15.9----30.16- 72.9 75.7----
2024-04-19 10:12 pmENE 12.0 15.0----30.16- 72.9 75.7----
2024-04-19 10:06 pmENE 12.0 17.1----30.16- 73.0 75.7----
2024-04-19 10:00 pm-------30.16+0.04- 75.7----
2024-04-19 09:54 pm-------30.16-- 75.7----
2024-04-19 09:48 pmENE 13.0 15.9----30.16- 73.0 75.7----
2024-04-19 09:42 pmENE 13.0 15.0----30.16- 73.0 75.7----
2024-04-19 09:36 pmENE 13.0 15.0----30.16- 73.0 75.7----
2024-04-19 09:30 pmENE 11.1 15.0----30.16- 72.9 75.7----
2024-04-19 09:24 pmENE 13.0 15.0----30.16- 73.0 75.7----
2024-04-19 09:18 pmENE 12.0 15.9----30.15- 72.9 75.7----
2024-04-19 09:12 pmENE 12.0 15.9----30.15- 72.9 75.7----
2024-04-19 09:06 pmENE 11.1 14.0----30.15- 72.9 75.7----
2024-04-19 09:00 pm NE 12.0 15.0----30.15+0.04 72.9 75.7----
2024-04-19 08:54 pmENE 11.1 14.0----30.15- 72.9 75.7----
2024-04-19 08:48 pm NE 12.0 15.9----30.14- 72.9 75.6----
2024-04-19 08:42 pmENE 12.0 15.0----30.14- 72.9 75.6----
2024-04-19 08:36 pmENE 11.1 15.0----30.14- 72.9 75.6----
2024-04-19 08:30 pmENE 9.9 13.0----30.14- 72.9 75.6----
2024-04-19 08:24 pmENE 12.0 14.0----30.14- 72.9 75.6----
2024-04-19 08:18 pmENE 12.0 14.0----30.14- 72.9 75.6----
2024-04-19 08:12 pmENE 9.9 14.0----30.14- 72.9 75.6----
2024-04-19 08:06 pmENE 9.9 15.0----30.14- 73.0 75.7----
2024-04-19 08:00 pmENE 9.9 14.0----30.14+0.04 72.9 75.7----
2024-04-19 07:54 pmENE 11.1 13.0----30.14- 72.9 75.7----
2024-04-19 07:48 pm NE 2.9 8.0----30.14- 72.3 75.6----
2024-04-19 07:42 pm NE 7.0 9.9----30.13- 72.9 75.6----
2024-04-19 07:36 pm NE 5.1 9.9----30.13- 72.9 75.6----
2024-04-19 07:30 pm NE 8.0 12.0----30.13- 73.0 75.6----
2024-04-19 07:24 pm NE 8.9 13.0----30.13- 73.0 75.6----
2024-04-19 07:18 pm NE 8.9 12.0----30.13- 72.9 75.6----
2024-04-19 07:12 pm NE 8.0 11.1----30.13- 73.0 75.7----
2024-04-19 07:06 pm NE 9.9 13.0----30.12- 73.0 75.7----
2024-04-19 07:00 pmENE 8.0 13.0----30.12+0.02 73.0 75.6----
2024-04-19 06:54 pmENE 11.1 13.0----30.12- 73.0 75.9----
2024-04-19 06:48 pmENE 8.0 13.0----30.12- 73.0 75.9----
2024-04-19 06:42 pmENE 9.9 13.0----30.12- 73.0 75.9----
2024-04-19 06:36 pm NE 9.9 12.0----30.12- 73.0 76.1----
2024-04-19 06:30 pm NE 9.9 13.0----30.12- 73.0 76.3----
2024-04-19 06:24 pmENE 9.9 14.0----30.11- 73.0 76.3----
2024-04-19 06:18 pmENE 9.9 13.0----30.11- 73.0 76.3----
2024-04-19 06:12 pm NE 8.0 13.0----30.11- 73.0 76.3----
2024-04-19 06:06 pmENE 11.1 15.0----30.11- 73.0 76.3----
2024-04-19 06:00 pmENE 8.9 13.0----30.11+0.00 73.0 76.3----
2024-04-19 05:54 pm NE 9.9 13.0----30.11- 73.0 76.5----
2024-04-19 05:48 pm NE 7.0 9.9----30.11- 72.7 76.5----
2024-04-19 05:42 pm NE 7.0 13.0----30.11- 72.3 76.5----
2024-04-19 05:36 pm NE 13.0 15.9----30.11- 72.1 76.5----
2024-04-19 05:30 pmENE 15.0 19.0----30.11- 70.9 76.5----
2024-04-19 05:24 pmNNE 15.9 20.0----30.10- 71.8 76.5----
2024-04-19 05:18 pmENE 13.0 17.1----30.10- 72.3 76.5----
2024-04-19 05:12 pmENE 14.0 15.9----30.10- 72.7 76.5----
2024-04-19 05:06 pm NE 8.9 13.0----30.10- 73.0 76.5----
2024-04-19 05:00 pm NE 8.9 15.9----30.10-0.03 72.7 76.5----
2024-04-19 04:54 pmENE 14.0 17.1----30.10- 72.7 76.5----
2024-04-19 04:48 pmENE 11.1 14.0----30.09- 73.2 76.5----
2024-04-19 04:42 pm NE 11.1 15.0----30.10- 73.2 76.5----
2024-04-19 04:36 pm NE 9.9 13.0----30.10- 72.7 76.5----
2024-04-19 04:30 pm NE 12.0 15.0----30.10- 72.5 76.5----
2024-04-19 04:24 pmENE 15.0 18.1----30.10- 72.7 76.5----
2024-04-19 04:18 pm E 14.0 19.0----30.09- 72.7 76.3----
2024-04-19 04:12 pmENE 12.0 18.1----30.10- 72.3 76.3----
2024-04-19 04:06 pm NE 9.9 13.0----30.10- 72.7 76.3----
2024-04-19 04:00 pm N 8.0 12.0----30.10-0.04 72.0 76.5----
2024-04-19 03:54 pmNNE 7.0 13.0----30.10- 72.0 76.5----
2024-04-19 03:48 pmNNE 8.0 12.0----30.11- 71.8 76.5----
2024-04-19 03:42 pmNNE 8.9 13.0----30.11- 71.8 76.5----
2024-04-19 03:36 pm NE 8.0 14.0----30.11- 71.1 76.5----
2024-04-19 03:30 pmENE 11.1 13.0----30.11- 70.3 76.5----
2024-04-19 03:24 pm NE 8.0 13.0----30.11- 70.5 76.5----
2024-04-19 03:18 pmENE 13.0 19.0----30.11- 70.5 76.5----
2024-04-19 03:12 pmENE 15.9 21.0----30.11- 70.5 76.5----
2024-04-19 03:06 pm E 15.0 19.0----30.11- 71.1 76.5----
2024-04-19 03:00 pm NE 9.9 15.0----30.11-0.05 73.0 76.5----
2024-04-19 02:54 pm NE 9.9 15.9----30.11- 72.3 76.5----